Terug naar catalogus

STARLINK-4044

ActiefCommunicatieVLEO
NORAD 52662·PAYLOAD·🇺🇸 United States

Gelanceerd May 18, 2022 vanaf Cape Canaveral Space Force Station

Loading…

Volgende Passages (komende 24 uur)

TLE

VersSource: CelesTrak SupGP

Epoch: Sep 14, 2026, 20:50 UTC

1 52662C 22053G   26257.86854167  .00016297  00000+0  46625-3 0  2577
2 52662  53.1600  22.1434 0001394  78.4348 335.4741 15.35392189    19

Volg STARLINK-4044 in realtime met AllMySat

Download on the App Store